FW8740 Weather Reports


Display with metric or nautical units.
time (UTC)temp
F
wind
direction
speed
MPH
gust
MPH
rain 1hr
in
rain 24hr
in
rain mn
in
humidity
%
barometer
mb
20260831024430 70 106 0.0 0.0 0.00 0.08 0.08 96 1022.6
20260831023925 70 107 0.0 0.0 0.00 0.08 0.08 96 1022.7
20260831023423 70 96 0.0 0.0 0.00 0.08 0.08 96 1022.4
20260831022919 70 91 0.0 1.0 0.00 0.08 0.08 96 1022.6
20260831022417 70 97 0.0 0.0 0.00 0.08 0.08 96 1022.4
20260831021912 70 307 1.0 2.0 0.00 0.08 0.08 96 1022.3
20260831021412 70 6 1.0 2.0 0.00 0.08 0.08 95 1022.5
20260831020908 70 80 1.0 2.0 0.07 0.08 0.08 95 1022.4
20260831020407 70 88 1.0 2.0 0.07 0.08 0.08 95 1022.5
20260831015902 70 56 1.0 1.0 0.00 0.07 0.07 95 1022.6
20260831015358 70 319 1.0 2.0 0.00 0.07 0.07 95 1022.4
20260831014852 70 103 0.0 1.0 0.00 0.07 0.07 95 1022.3
20260831014347 70 99 0.0 1.0 0.00 0.07 0.07 95 1022.3
20260831013843 70 102 0.0 1.0 0.00 0.07 0.07 95 1022.4
20260831013338 71 102 0.0 2.0 0.00 0.07 0.07 95 1022.5
20260831012832 71 73 1.0 1.0 0.05 0.07 0.07 95 1022.6
20260831012328 71 96 1.0 2.0 0.05 0.07 0.07 95 1022.3
20260831011828 71 101 1.0 1.0 0.00 0.06 0.06 95 1022.4
20260831011323 71 106 0.0 1.0 0.07 0.06 0.06 95 1022.4
20260831010819 71 106 1.0 1.0 0.12 0.06 0.06 94 1022.2
20260831010318 71 69 1.0 1.0 0.05 0.05 0.05 94 1022.1
20260831005814 71 101 0.0 0.0 0.07 0.04 0.04 94 1022.2
20260831005310 71 94 0.0 0.0 0.07 0.04 0.04 94 1022.3
20260831004804 71 95 1.0 2.0 0.00 0.03 0.03 94 1022.0
20260831004301 71 324 2.0 3.0 0.00 0.03 0.03 94 1021.9
20260831003756 71 99 0.0 2.0 0.05 0.03 0.03 94 1022.1
20260831003252 72 104 0.0 0.0 0.05 0.03 0.03 94 1022.2
20260831002751 72 99 0.0 0.0 0.00 0.02 0.02 94 1022.0
20260831002245 72 101 0.0 0.0 0.07 0.02 0.02 94 1021.9
20260831001741 72 86 1.0 1.0 0.07 0.02 0.02 94 1021.7
20260831001236 72 102 0.0 0.0 0.05 0.01 0.01 94 1021.8
20260831000733 72 100 0.0 1.0 0.05 0.01 0.01 93 1021.5
20260831000227 73 100 0.0 0.0 0.00 0.00 0.00 93 1021.6
20260830235726 73 105 0.0 0.0 0.00 0.00 0.00 93 1021.4
20260830235221 73 108 0.0 0.0 0.00 0.00 0.00 92 1021.5
20260830234721 73 104 0.0 0.0 0.00 0.00 0.00 92 1021.3
20260830234218 73 118 0.0 0.0 0.00 0.00 0.00 91 1021.6
20260830233713 73 110 0.0 0.0 0.00 0.00 0.00 91 1021.4
20260830233208 73 111 0.0 0.0 0.00 0.00 0.00 90 1021.2
20260830232704 74 108 0.0 0.0 0.00 0.00 0.00 90 1021.2
20260830232159 74 112 0.0 0.0 0.00 0.00 0.00 90 1021.2
20260830231656 74 112 0.0 0.0 0.00 0.00 0.00 89 1021.0
20260830231155 74 121 0.0 0.0 0.00 0.00 0.00 89 1021.0
20260830230650 74 128 0.0 1.0 0.00 0.00 0.00 89 1021.1
20260830230145 74 114 0.0 0.0 0.00 0.00 0.00 89 1021.0
20260830225640 74 111 0.0 0.0 0.00 0.00 0.00 89 1021.1
20260830225135 74 114 0.0 0.0 0.00 0.00 0.00 89 1021.0
20260830224634 75 112 1.0 1.0 0.00 0.00 0.00 88 1021.1
20260830224130 75 109 0.0 0.0 0.00 0.00 0.00 88 1021.4
20260830223627 75 105 0.0 0.0 0.00 0.00 0.00 88 1021.2
20260830223126 75 105 0.0 1.0 0.00 0.00 0.00 87 1021.2
20260830222626 75 112 0.0 0.0 0.00 0.00 0.00 87 1021.0
20260830222122 75 109 1.0 1.0 0.00 0.00 0.00 86 1021.2
20260830221618 75 113 0.0 1.0 0.00 0.00 0.00 86 1021.4
20260830221114 76 110 0.0 0.0 0.00 0.00 0.00 86 1021.4
20260830220609 76 104 0.0 2.0 0.00 0.00 0.00 85 1021.5
20260830220108 76 293 2.0 5.0 0.00 0.00 0.00 85 1021.4
20260830215607 76 123 1.0 5.0 0.00 0.00 0.00 85 1021.4
20260830215101 76 113 0.0 3.0 0.00 0.00 0.00 85 1021.3
20260830214557 77 94 0.0 1.0 0.00 0.00 0.00 84 1021.5
20260830214052 77 291 3.0 5.0 0.00 0.00 0.00 84 1021.2
20260830213551 77 109 1.0 2.0 0.00 0.00 0.00 84 1021.3
20260830213047 77 63 2.0 3.0 0.00 0.00 0.00 82 1021.3
20260830212543 77 305 1.0 3.0 0.00 0.00 0.00 82 1021.2
20260830212037 78 2 4.0 6.0 0.00 0.00 0.00 81 1021.3
20260830211532 78 108 2.0 2.0 0.00 0.00 0.00 82 1021.2
20260830211032 78 91 1.0 1.0 0.00 0.00 0.00 82 1021.3
20260830210527 78 103 1.0 8.0 0.00 0.00 0.00 81 1020.9
20260830210026 78 139 1.0 6.0 0.00 0.00 0.00 81 1021.2
20260830205524 77 327 3.0 6.0 0.00 0.00 0.00 82 1021.3
20260830205020 77 336 4.0 7.0 0.00 0.00 0.00 82 1021.4
20260830204519 77 114 1.0 3.0 0.00 0.00 0.00 82 1021.4
20260830204018 77 125 1.0 7.0 0.00 0.00 0.00 82 1021.5
20260830203515 77 72 0.0 2.0 0.00 0.00 0.00 81 1021.6
20260830203010 77 161 1.0 2.0 0.00 0.00 0.00 81 1021.6
20260830202504 77 3 3.0 7.0 0.00 0.00 0.00 82 1021.6
20260830202000 78 105 1.0 5.0 0.00 0.00 0.00 82 1021.6
20260830201459 76 104 1.0 6.0 0.00 0.00 0.00 83 1021.7
20260830200954 76 6 1.0 7.0 0.00 0.00 0.00 83 1021.7
20260830200454 76 51 1.0 6.0 0.00 0.00 0.00 83 1021.6
20260830195948 76 120 1.0 3.0 0.00 0.00 0.00 84 1022.1
20260830195444 75 99 1.0 2.0 0.00 0.00 0.00 84 1021.8
20260830194942 75 80 2.0 3.0 0.00 0.00 0.00 84 1022.0
20260830194441 75 80 3.0 5.0 0.00 0.00 0.00 84 1022.0
20260830193936 75 18 2.0 7.0 0.00 0.00 0.00 84 1021.9
20260830193435 75 98 4.0 7.0 0.00 0.00 0.00 84 1022.0
20260830192930 75 297 3.0 7.0 0.00 0.00 0.00 83 1022.0
20260830192426 75 109 0.0 1.0 0.00 0.00 0.00 82 1022.2
20260830191921 75 19 2.0 3.0 0.00 0.00 0.00 81 1022.3
20260830191420 75 329 3.0 5.0 0.00 0.00 0.00 81 1022.3
20260830190916 75 348 2.0 3.0 0.00 0.00 0.00 82 1022.2
20260830190411 75 7 2.0 2.0 0.00 0.00 0.00 81 1022.6
20260830185910 75 318 2.0 5.0 0.00 0.00 0.00 81 1022.6
20260830185406 75 60 1.0 3.0 0.00 0.00 0.00 81 1022.9
20260830184901 75 93 1.0 2.0 0.00 0.00 0.00 80 1022.8
20260830184400 75 349 2.0 6.0 0.00 0.00 0.00 79 1022.7
20260830183859 75 37 2.0 6.0 0.00 0.00 0.00 79 1022.7
20260830183354 76 91 1.0 2.0 0.00 0.00 0.00 77 1023.0
20260830182850 76 112 1.0 2.0 0.00 0.00 0.00 77 1022.9
20260830182346 77 103 1.0 5.0 0.00 0.00 0.00 75 1022.9
20260830181842 76 104 1.0 3.0 0.00 0.00 0.00 76 1022.9
20260830181337 75 105 3.0 8.0 0.00 0.00 0.00 76 1023.0
20260830180836 75 45 3.0 5.0 0.00 0.00 0.00 76 1023.1
20260830180331 75 8 2.0 3.0 0.00 0.00 0.00 76 1023.6
20260830175830 76 261 5.0 8.0 0.00 0.00 0.00 74 1023.4
20260830175325 77 291 3.0 7.0 0.00 0.00 0.00 73 1023.4
20260830174820 78 34 4.0 10.0 0.00 0.00 0.00 71 1023.4
20260830174315 78 62 3.0 7.0 0.00 0.00 0.00 72 1023.0
20260830173815 77 121 2.0 7.0 0.00 0.00 0.00 73 1023.3
20260830173310 77 164 3.0 6.0 0.00 0.00 0.00 72 1023.2
20260830172801 77 134 2.0 5.0 0.00 0.00 0.00 72 1023.6
20260830172258 77 8 1.0 2.0 0.00 0.00 0.00 73 1023.5
20260830171753 76 129 1.0 1.0 0.00 0.00 0.00 73 1023.8
20260830171248 76 126 0.0 5.0 0.00 0.00 0.00 73 1023.8
20260830170743 76 120 0.0 2.0 0.00 0.00 0.00 70 1023.8
20260830170242 77 123 1.0 6.0 0.00 0.00 0.00 69 1023.8
20260830165741 77 128 1.0 3.0 0.00 0.00 0.00 69 1023.5
20260830165237 77 292 2.0 9.0 0.00 0.00 0.00 68 1023.6
20260830164733 77 38 3.0 7.0 0.00 0.00 0.00 67 1023.6
20260830164229 77 347 2.0 3.0 0.00 0.00 0.00 66 1023.2
20260830163726 77 164 3.0 7.0 0.00 0.00 0.00 67 1023.8
20260830163221 76 195 3.0 6.0 0.00 0.00 0.00 66 1024.0
20260830162715 77 135 1.0 5.0 0.00 0.00 0.00 65 1024.0
20260830162212 76 148 1.0 2.0 0.00 0.00 0.00 69 1023.9
20260830161707 76 333 0.0 2.0 0.00 0.00 0.00 68 1024.1
20260830161201 76 56 1.0 1.0 0.00 0.00 0.00 67 1024.4
20260830160657 76 124 1.0 3.0 0.00 0.00 0.00 66 1024.2
20260830160151 76 105 0.0 1.0 0.00 0.00 0.00 66 1024.1
20260830155648 77 179 1.0 2.0 0.00 0.00 0.00 64 1024.5
20260830155143 77 138 1.0 3.0 0.00 0.00 0.00 64 1024.7
20260830154638 76 275 2.0 5.0 0.00 0.00 0.00 63 1024.4
20260830154134 77 65 1.0 5.0 0.00 0.00 0.00 62 1024.6
20260830153631 77 40 2.0 3.0 0.00 0.00 0.00 62 1024.6
20260830153130 77 255 2.0 2.0 0.00 0.00 0.00 58 1024.4
20260830152629 76 301 3.0 6.0 0.00 0.00 0.00 61 1024.3
20260830152128 77 89 2.0 6.0 0.00 0.00 0.00 64 1024.4
20260830151624 77 66 1.0 2.0 0.00 0.00 0.00 61 1024.5
20260830151123 76 111 0.0 1.0 0.00 0.00 0.00 62 1024.8
20260830150618 78 333 3.0 3.0 0.00 0.00 0.00 60 1024.9
20260830150113 77 120 0.0 3.0 0.00 0.00 0.00 60 1024.9
20260830145612 76 125 0.0 1.0 0.00 0.00 0.00 61 1025.1
20260830145108 77 290 2.0 3.0 0.00 0.00 0.00 62 1025.2
20260830144603 76 101 1.0 2.0 0.00 0.00 0.00 63 1025.1
20260830144059 74 104 1.0 6.0 0.00 0.00 0.00 63 1025.1
20260830143555 74 121 1.0 5.0 0.00 0.00 0.00 64 1025.2
20260830143053 75 340 3.0 6.0 0.00 0.00 0.00 63 1025.1
20260830142548 74 149 3.0 5.0 0.00 0.00 0.00 62 1025.2
20260830142043 75 259 6.0 7.0 0.00 0.00 0.00 63 1025.0
20260830141538 75 13 3.0 3.0 0.00 0.00 0.00 64 1025.1
20260830141033 75 124 0.0 1.0 0.00 0.00 0.00 67 1025.1
20260830140527 75 2 1.0 2.0 0.00 0.00 0.00 68 1025.2
20260830140023 74 94 2.0 5.0 0.00 0.00 0.00 69 1025.2
20260830135518 73 250 2.0 3.0 0.00 0.00 0.00 70 1025.3
20260830135013 72 39 1.0 3.0 0.00 0.00 0.00 70 1025.2
20260830134509 72 242 3.0 3.0 0.00 0.00 0.00 70 1025.5
20260830134004 73 130 1.0 1.0 0.00 0.00 0.00 70 1025.4
20260830133500 72 126 0.0 0.0 0.00 0.00 0.00 72 1025.4
20260830132959 71 66 1.0 2.0 0.00 0.00 0.00 72 1025.5
20260830132451 71 354 2.0 5.0 0.00 0.00 0.00 72 1025.4
20260830131950 70 122 1.0 3.0 0.00 0.00 0.00 75 1025.8
20260830131449 71 142 1.0 3.0 0.00 0.00 0.00 76 1025.5
20260830130944 70 121 0.0 1.0 0.00 0.00 0.00 77 1025.5
20260830130440 69 136 0.0 2.0 0.00 0.00 0.00 78 1025.7
20260830125938 68 109 0.0 3.0 0.00 0.00 0.00 84 1025.9
20260830125434 68 259 2.0 2.0 0.00 0.00 0.00 85 1025.8
20260830124932 66 117 0.0 1.0 0.00 0.00 0.00 89 1025.9
20260830124427 65 92 1.0 2.0 0.00 0.00 0.00 91 1025.6
20260830123924 64 112 0.0 0.0 0.00 0.00 0.00 93 1025.8
20260830123420 64 117 0.0 0.0 0.00 0.00 0.00 92 1025.9
20260830122918 63 117 0.0 0.0 0.00 0.00 0.00 93 1025.9
20260830122412 62 111 1.0 1.0 0.00 0.00 0.00 94 1025.9
20260830121912 62 106 0.0 0.0 0.00 0.00 0.00 94 1025.8
20260830121408 61 112 0.0 0.0 0.00 0.00 0.00 95 1026.1
20260830120902 61 107 0.0 0.0 0.00 0.00 0.00 95 1026.0
20260830120358 61 107 0.0 0.0 0.00 0.00 0.00 95 1025.7
20260830115854 61 107 0.0 0.0 0.00 0.00 0.00 95 1026.0
20260830115350 60 107 0.0 0.0 0.00 0.00 0.00 95 1026.0
20260830114845 60 106 0.0 0.0 0.00 0.00 0.00 95 1025.9
20260830114342 60 106 0.0 0.0 0.00 0.00 0.00 95 1026.1
20260830113836 60 106 0.0 0.0 0.00 0.00 0.00 95 1025.9
20260830113331 60 106 0.0 0.0 0.00 0.00 0.00 95 1025.9
20260830112827 59 106 0.0 0.0 0.00 0.00 0.00 95 1025.9
20260830112323 59 106 0.0 0.0 0.00 0.00 0.00 95 1026.0
20260830111819 59 104 0.0 0.0 0.00 0.00 0.00 95 1025.9
20260830111314 59 104 0.0 0.0 0.00 0.00 0.00 95 1025.9
20260830110814 59 104 0.0 0.0 0.00 0.00 0.00 95 1025.8
20260830110310 58 103 0.0 0.0 0.00 0.00 0.00 95 1026.1
20260830105809 58 104 0.0 0.0 0.00 0.00 0.00 95 1025.9
20260830105306 58 102 0.0 0.0 0.00 0.00 0.00 95 1026.0
20260830104802 58 104 0.0 0.0 0.00 0.00 0.00 95 1025.8
20260830104259 58 103 0.0 0.0 0.00 0.00 0.00 95 1025.4
20260830103757 58 104 0.0 0.0 0.00 0.00 0.00 95 1025.6
20260830103253 58 103 0.0 0.0 0.00 0.00 0.00 95 1025.7
20260830102751 58 108 0.0 0.0 0.00 0.00 0.00 95 1025.8
20260830102247 59 107 0.0 0.0 0.00 0.00 0.00 95 1025.7
20260830101743 59 105 0.0 0.0 0.00 0.00 0.00 95 1025.8
20260830101238 59 106 0.0 0.0 0.00 0.00 0.00 95 1025.8
20260830100737 58 107 0.0 0.0 0.00 0.00 0.00 95 1025.6
20260830100232 58 108 0.0 0.0 0.00 0.00 0.00 95 1025.8
20260830095731 59 110 0.0 0.0 0.00 0.00 0.00 95 1025.9
20260830095227 59 106 0.0 1.0 0.00 0.00 0.00 95 1025.7
20260830094722 58 103 0.0 0.0 0.00 0.00 0.00 95 1025.8
20260830094219 58 102 0.0 0.0 0.00 0.00 0.00 95 1025.8
20260830093713 58 104 0.0 0.0 0.00 0.00 0.00 95 1026.1
20260830093210 58 103 0.0 0.0 0.00 0.00 0.00 95 1025.8
20260830092709 58 103 0.0 0.0 0.00 0.00 0.00 95 1026.0
20260830092207 58 106 0.0 0.0 0.00 0.00 0.00 95 1025.7
20260830091702 58 104 0.0 0.0 0.00 0.00 0.00 95 1026.0
20260830091201 58 103 0.0 0.0 0.00 0.00 0.00 95 1026.0
20260830090701 58 104 0.0 0.0 0.00 0.00 0.00 95 1025.8
20260830090156 58 102 0.0 0.0 0.00 0.00 0.00 95 1025.9
20260830085655 58 104 0.0 0.0 0.00 0.00 0.00 95 1025.9
20260830085151 57 103 0.0 0.0 0.00 0.00 0.00 95 1025.9
20260830084647 57 103 0.0 0.0 0.00 0.00 0.00 95 1026.0
20260830084142 57 104 0.0 0.0 0.00 0.00 0.00 95 1026.1
20260830083637 57 103 0.0 0.0 0.00 0.00 0.00 95 1026.2
20260830083132 57 104 0.0 0.0 0.00 0.00 0.00 95 1026.0
20260830082627 57 102 0.0 0.0 0.00 0.00 0.00 95 1026.2
20260830082123 57 103 0.0 0.0 0.00 0.00 0.00 95 1026.2
20260830081618 57 102 0.0 0.0 0.00 0.00 0.00 95 1026.1
20260830081117 57 103 0.0 0.0 0.00 0.00 0.00 95 1026.0
20260830080612 57 104 0.0 0.0 0.00 0.00 0.00 95 1026.3
20260830080108 57 104 0.0 0.0 0.00 0.00 0.00 95 1026.4
20260830075607 57 104 0.0 0.0 0.00 0.00 0.00 95 1026.3
20260830075102 57 103 0.0 0.0 0.00 0.00 0.00 95 1026.1
20260830074558 57 103 0.0 0.0 0.00 0.00 0.00 95 1026.4
20260830074054 57 104 0.0 0.0 0.00 0.00 0.00 95 1026.1
20260830073550 57 104 0.0 0.0 0.00 0.00 0.00 95 1026.2
20260830073045 57 103 0.0 0.0 0.00 0.00 0.00 95 1026.0
20260830072540 57 96 0.0 0.0 0.00 0.00 0.00 95 1026.1
20260830072040 57 95 0.0 0.0 0.00 0.00 0.00 95 1026.1
20260830071536 57 104 0.0 0.0 0.00 0.00 0.00 95 1025.9
20260830071033 57 103 0.0 0.0 0.00 0.00 0.00 95 1025.9
20260830070528 57 103 0.0 0.0 0.00 0.00 0.00 95 1026.2
20260830070023 57 102 0.0 0.0 0.00 0.00 0.00 95 1026.0
20260830065522 57 105 0.0 0.0 0.00 0.00 0.00 95 1026.1
20260830065020 57 108 0.0 0.0 0.00 0.00 0.00 95 1026.0
20260830064515 57 107 0.0 0.0 0.00 0.00 0.00 95 1025.9
20260830064010 57 106 0.0 0.0 0.00 0.00 0.00 95 1026.1
20260830063510 57 102 0.0 0.0 0.00 0.00 0.00 95 1026.1
20260830063009 57 106 0.0 0.0 0.00 0.00 0.00 95 1026.0
20260830062503 57 102 0.0 0.0 0.00 0.00 0.00 95 1026.0
20260830061958 57 102 0.0 0.0 0.00 0.00 0.00 95 1026.2
20260830061453 57 105 0.0 0.0 0.00 0.00 0.00 95 1026.1
20260830060949 57 106 0.0 0.0 0.00 0.00 0.00 95 1026.1
20260830060446 57 101 0.0 0.0 0.00 0.00 0.00 95 1026.1
20260830055941 57 106 0.0 0.0 0.00 0.00 0.00 95 1026.2
20260830055436 57 101 0.0 0.0 0.00 0.00 0.00 95 1025.9
20260830054932 57 104 0.0 0.0 0.00 0.00 0.00 95 1026.1
20260830054428 57 102 0.0 0.0 0.00 0.00 0.00 95 1026.2
20260830053923 57 103 0.0 0.0 0.00 0.00 0.00 95 1025.9
20260830053419 57 103 0.0 0.0 0.00 0.00 0.00 95 1026.0
20260830052917 57 106 0.0 0.0 0.00 0.00 0.00 95 1025.8
20260830052413 57 106 0.0 0.0 0.00 0.00 0.00 95 1026.0
20260830051908 57 105 0.0 0.0 0.00 0.00 0.00 95 1025.9
20260830051404 57 107 0.0 0.0 0.00 0.00 0.00 94 1025.9
20260830050903 57 102 0.0 0.0 0.00 0.00 0.00 94 1025.9
20260830050358 57 105 0.0 0.0 0.00 0.00 0.00 94 1025.8
20260830045856 57 103 0.0 0.0 0.00 0.00 0.00 94 1026.0
20260830045351 57 102 0.0 0.0 0.00 0.00 0.00 94 1026.0
20260830044850 57 104 0.0 0.0 0.00 0.00 0.00 94 1026.0
20260830044347 57 105 0.0 0.0 0.00 0.00 0.00 94 1025.9
20260830043846 57 106 0.0 0.0 0.00 0.00 0.00 94 1026.0
20260830043341 57 104 0.0 0.0 0.00 0.00 0.00 94 1026.1
20260830042839 57 105 0.0 0.0 0.00 0.00 0.00 94 1025.8
20260830042334 57 105 0.0 0.0 0.00 0.00 0.00 94 1025.9
20260830041833 57 104 0.0 0.0 0.00 0.00 0.00 94 1026.0
20260830041332 57 101 0.0 0.0 0.00 0.00 0.00 94 1025.7
20260830040828 57 103 0.0 0.0 0.00 0.00 0.00 94 1025.9
20260830040324 57 107 0.0 0.0 0.00 0.00 0.00 94 1025.7
20260830035823 57 107 0.0 0.0 0.00 0.00 0.00 94 1025.9
20260830035322 57 106 0.0 0.0 0.00 0.00 0.00 94 1025.9
20260830034818 57 107 0.0 0.0 0.00 0.00 0.00 94 1025.7
20260830034312 57 107 0.0 0.0 0.00 0.00 0.00 94 1025.9
20260830033808 57 103 0.0 0.0 0.00 0.00 0.00 94 1026.0
20260830033302 58 101 0.0 0.0 0.00 0.00 0.00 94 1026.0
20260830032757 58 103 0.0 0.0 0.00 0.00 0.00 94 1025.8
20260830032251 58 102 0.0 0.0 0.00 0.00 0.00 94 1025.9
20260830031746 58 103 0.0 0.0 0.00 0.00 0.00 94 1025.9
20260830031241 58 103 0.0 0.0 0.00 0.00 0.00 94 1026.0
20260830030737 58 105 0.0 0.0 0.00 0.00 0.00 94 1025.8
20260830030233 58 103 0.0 0.0 0.00 0.00 0.00 94 1025.9
20260830025732 58 104 0.0 0.0 0.00 0.00 0.00 94 1026.1
20260830025231 58 97 0.0 0.0 0.00 0.00 0.00 94 1025.9
20260830024732 58 106 0.0 0.0 0.00 0.00 0.00 94 1026.0